TimePST,TemperatureF,Dew PointF,Humidity,Sea Level PressureIn,VisibilityMPH,Wind Direction,Wind SpeedMPH,Gust SpeedMPH,PrecipitationIn,Events,Conditions,WindDirDegrees,DateUTC
12:15 AM,8.6,5.0,85,30.30,0.2,Calm,Calm,-,N/A,Fog,Light Freezing Fog,0,2013-01-04 08:15:00
12:35 AM,6.8,3.2,85,30.29,0.2,Calm,Calm,-,N/A,Fog,Light Freezing Fog,0,2013-01-04 08:35:00
12:55 AM,5.0,1.4,85,30.29,0.2,Calm,Calm,-,N/A,Fog,Light Freezing Fog,0,2013-01-04 08:55:00
1:15 AM,8.6,5.0,85,30.29,0.2,Calm,Calm,-,N/A,Fog,Light Freezing Fog,0,2013-01-04 09:15:00
3:35 AM,6.8,1.4,79,30.30,0.2,Calm,Calm,-,N/A,Fog,Light Freezing Fog,0,2013-01-04 11:35:00
3:55 AM,5.0,-0.4,78,30.29,0.2,Calm,Calm,-,N/A,Fog,Light Freezing Fog,0,2013-01-04 11:55:00
4:15 AM,5.0,1.4,85,30.29,1.8,North,4.6,-,N/A,,Overcast,360,2013-01-04 12:15:00
4:35 AM,3.2,-0.4,85,30.29,2.0,Calm,Calm,-,N/A,Snow,Light Snow,0,2013-01-04 12:35:00
4:55 AM,-0.4,-4.0,85,30.30,0.5,SSW,3.5,-,N/A,Fog,Light Freezing Fog,210,2013-01-04 12:55:00
5:15 AM,3.2,-0.4,85,30.30,0.2,Calm,Calm,-,N/A,Fog,Light Freezing Fog,0,2013-01-04 13:15:00
5:35 AM,5.0,1.4,85,30.30,0.2,Calm,Calm,-,N/A,Fog,Light Freezing Fog,0,2013-01-04 13:35:00
6:45 AM,3.2,-0.4,85,30.30,0.2,Calm,Calm,-,N/A,Fog,Light Freezing Fog,0,2013-01-04 14:45:00
7:50 AM,-0.4,-2.2,92,30.32,0.2,Calm,Calm,-,N/A,Fog,Light Freezing Fog,0,2013-01-04 15:50:00
8:55 AM,6.8,5.0,92,30.33,10.0,Calm,Calm,-,N/A,,Scattered Clouds,0,2013-01-04 16:55:00
9:45 AM,10.4,8.6,92,30.34,10.0,Calm,Calm,-,N/A,,Partly Cloudy,0,2013-01-04 17:45:00
10:50 AM,14.0,10.4,86,30.32,10.0,Calm,Calm,-,N/A,,Clear,0,2013-01-04 18:50:00
11:55 AM,23.0,21.2,93,30.26,10.0,Calm,Calm,-,N/A,,Clear,0,2013-01-04 19:55:00
12:50 PM,24.8,23.0,93,30.24,10.0,Calm,Calm,-,N/A,,Partly Cloudy,0,2013-01-04 20:50:00
2:00 PM,26.6,23.0,86,30.23,10.0,Calm,Calm,-,N/A,,Partly Cloudy,0,2013-01-04 22:00:00
2:45 PM,28.4,23.0,80,30.23,10.0,Calm,Calm,-,N/A,,Scattered Clouds,0,2013-01-04 22:45:00
4:50 PM,26.6,19.4,74,30.23,10.0,Calm,Calm,-,N/A,,Clear,0,2013-01-05 00:50:00
4:55 PM,26.6,19.4,74,30.23,10.0,NNW,3.5,-,N/A,,Clear,330,2013-01-05 00:55:00
5:15 PM,26.6,17.6,69,30.23,10.0,Calm,Calm,-,N/A,,Clear,0,2013-01-05 01:15:00
5:35 PM,24.8,19.4,80,30.23,10.0,Calm,Calm,-,N/A,,Clear,0,2013-01-05 01:35:00
5:55 PM,24.8,19.4,80,30.24,10.0,Calm,Calm,-,N/A,,Clear,0,2013-01-05 01:55:00
6:15 PM,23.0,19.4,86,30.24,10.0,Calm,Calm,-,N/A,,Clear,0,2013-01-05 02:15:00
6:35 PM,21.2,19.4,93,30.25,7.0,Calm,Calm,-,N/A,,Clear,0,2013-01-05 02:35:00
6:55 PM,17.6,15.8,93,30.25,0.2,Calm,Calm,-,N/A,Fog,Light Freezing Fog,0,2013-01-05 02:55:00
7:15 PM,23.0,21.2,93,30.25,2.0,Calm,Calm,-,N/A,,Clear,0,2013-01-05 03:15:00
7:35 PM,21.2,19.4,93,30.25,8.0,Calm,Calm,-,N/A,,Clear,0,2013-01-05 03:35:00
7:55 PM,15.8,14.0,93,30.26,1.0,Calm,Calm,-,N/A,,Clear,0,2013-01-05 03:55:00
8:15 PM,15.8,14.0,93,30.26,0.2,ESE,3.5,-,N/A,Fog,Light Freezing Fog,120,2013-01-05 04:15:00
8:35 PM,12.2,8.6,85,30.26,0.2,Calm,Calm,-,N/A,Fog,Light Freezing Fog,0,2013-01-05 04:35:00
8:55 PM,17.6,17.6,100,30.26,2.0,Calm,Calm,-,N/A,,Scattered Clouds,0,2013-01-05 04:55:00
9:15 PM,17.6,15.8,93,30.27,0.2,Calm,Calm,-,N/A,Fog,Light Freezing Fog,0,2013-01-05 05:15:00
9:35 PM,14.0,10.4,86,30.28,0.2,Calm,Calm,-,N/A,Fog,Light Freezing Fog,0,2013-01-05 05:35:00
9:55 PM,14.0,10.4,86,30.28,0.2,Calm,Calm,-,N/A,Fog,Light Freezing Fog,0,2013-01-05 05:55:00
10:15 PM,14.0,10.4,86,30.28,0.2,Calm,Calm,-,N/A,Fog,Light Freezing Fog,0,2013-01-05 06:15:00
10:35 PM,12.2,10.4,92,30.29,0.2,Calm,Calm,-,N/A,Fog,Light Freezing Fog,0,2013-01-05 06:35:00
10:55 PM,10.4,8.6,92,30.29,0.2,Calm,Calm,-,N/A,Fog,Light Freezing Fog,0,2013-01-05 06:55:00
11:15 PM,12.2,8.6,85,30.28,0.2,Calm,Calm,-,N/A,Fog,Light Freezing Fog,0,2013-01-05 07:15:00
11:35 PM,14.0,12.2,93,30.28,0.2,Calm,Calm,-,N/A,Fog,Light Freezing Fog,0,2013-01-05 07:35:00
11:55 PM,10.4,6.8,85,30.28,0.2,Calm,Calm,-,N/A,Fog,Light Freezing Fog,0,2013-01-05 07:55:00